Flag for United Kingdom Weather past 2 weeks in Brentwood, England, United Kingdom

Now
62 °F

Mild.


Feels Like: 62 °F
Forecast: 60 / 76 °F
Wind: 6 mph from North

Location: Gravesend-Broadness

Current Time: Jul 29, 2014 at 12:16:40 AM

Latest Report: Jul 28, 2014 at 11:00 PM


Visibility: N/A

Pressure: 30.01 "Hg

Humidity: 81%

Dew point: 56 °F

Location of BrentwoodLocation

Historic Weather in Brentwood — Graph

°F

Brentwood temperature yesterday

Maximum temperature yesterday: 71 °F (at 1:00 PM)
Minimum temperature yesterday: 61 °F (at 5:00 AM)
Average temperature yesterday: 64 °F

Past Weeks' High & Low Weather Summary

 TemperatureHumidityPressure
High89 °F (Jul 18, 3:00 PM)98% (Jul 20, 6:00 AM)30.21 "Hg (Jul 20, 6:00 AM)
Low53 °F (Jul 16, 5:00 AM)34% (Jul 18, 6:00 PM)29.72 "Hg (Jul 19, 6:00 PM)
Average69 °F73%30.00 "Hg
* Reported Jul 13 11:00 PM — Jul 28 11:00 PM, Brentwood, Weather by CustomWeather, © 2014

Note: Actual official high and low records may vary slightly from our data, if they occured in-between our weather recording intervals... More about our weather records

Advertising

Brentwood weather history for previous 24 hours

 ConditionsComfort  
Time TempWeatherWind HumidityBarometerVisibility
11:00 PM
Jul 28
62 °FMild.6 mph81%30.01 "HgN/A
9:00 PM64 °FMild.7 mph77%29.98 "HgN/A
8:00 PM64 °FMild.7 mph73%29.99 "HgN/A
7:00 PM67 °FMild.13 mph55%29.98 "HgN/A
6:00 PM68 °FMild.15 mph57%29.98 "HgN/A
4:00 PM68 °FMild.8 mph65%29.98 "HgN/A
3:00 PM67 °FMild.15 mph70%29.98 "HgN/A
2:00 PM69 °FMild.9 mph66%29.97 "HgN/A
1:00 PM71 °FMild.6 mph62%29.98 "HgN/A
12:00 PM64 °FMild.3 mph73%29.99 "HgN/A
11:00 AM63 °FMild.8 mph73%29.97 "HgN/A
10:00 AM63 °FMild.8 mph75%29.95 "HgN/A
9:00 AM62 °FCool.9 mph77%29.96 "HgN/A
7:00 AM62 °FCool.7 mph86%29.94 "HgN/A
6:00 AM62 °FCool.9 mph84%29.94 "HgN/A
5:00 AM61 °FCool.6 mph83%29.93 "HgN/A
4:00 AM62 °FMild.9 mph76%29.94 "HgN/A
3:00 AM64 °FMild.5 mph87%29.95 "HgN/A
1:00 AM63 °FMild.3 mph87%29.96 "HgN/A
12:00 AM64 °FMild.3 mph86%29.98 "HgN/A
Weather by CustomWeather, © 2014

See weather overviewHow to use our weather pages